Regional Weather Roundup
Issued by NWS Sioux Falls, SD

Home | Current Version | Previous Version | Text Only | Print | Product List | Glossary On
Versions: 1 2 3 4 5 6 7 8 9 10 11 12 13 14 15 16 17 18 19 20 21 22 23 24 25 26 27 28 29 30 31 32 33 34 35 36 37 38 39 40 41 42 43 44 45 46 47 48 49 50
000
ASUS43 KFSD 290202
RWRFSD

WEATHER ROUNDUP FOR SE SOUTH DAKOTA/SW MINNESOTA/NW IOWA
NATIONAL WEATHER SERVICE SIOUX FALLS SD
900 PM CDT WED JUN 28 2017

NOTE: "FAIR" INDICATES FEW OR NO CLOUDS BELOW 12,000 FEET WITH NO
SIGNIFICANT WEATHER AND OR OBSTRUCTIONS TO VISIBILITY.


SDZ038>040-050-052>070-290300-
SOUTHEAST SOUTH DAKOTA

CITY           SKY/WX    TMP DP  RH WIND       PRES   REMARKS
BROOKINGS      CLEAR     73  56  54 NW9       29.67R
CHAMBERLAIN    CLEAR     81  48  31 CALM      29.71R
HURON          CLEAR     73  49  42 N6        29.68R
MADISON        FAIR      72  54  53 NW7       29.68R
MITCHELL       CLEAR     77  53  43 N7        29.67R
SIOUX FALLS    PTCLDY    76  63  64 W6        29.66R
WINNER         FAIR      78  49  35 N7        29.72R
YANKTON        CLEAR     79  63  57 W7        29.67R
$$

MNZ071-072-080-081-089-090-097-098-290300-
SOUTHWEST MINNESOTA

CITY           SKY/WX    TMP DP  RH WIND       PRES   REMARKS
FAIRMONT       MOCLDY    78  68  71 N6        29.61R
JACKSON        PTCLDY    73  63  68 CALM      29.64R
MARSHALL       CLEAR     74  62  66 N10       29.63R
MONTEVIDEO     CLEAR     73  61  64 N8        29.62R
PIPESTONE      CLEAR     79  57  47 NW7       29.66R
REDWOOD FALLS  CLEAR     75  60  59 NW10G18   29.60R
TRACY          CLEAR     75  64  68 N7        29.64R
WINDOM         CLEAR     75  63  64 NW8       29.63R
WORTHINGTON    CLEAR     74  63  68 NW6       29.66R
$$

IAZ001>003-012>014-020>022-031-032-NEZ013-014-SDZ071-290300-
NORTHWEST IOWA

CITY           SKY/WX    TMP DP  RH WIND       PRES   REMARKS
CHEROKEE       CLEAR     76  64  65 CALM      29.65R
DENISON        CLEAR     79  66  65 CALM      29.67R
ESTHERVILLE    PTCLDY    75  67  76 W7        29.62R
LE MARS        CLEAR     77  63  61 CALM      29.66R
ORANGE CITY    CLEAR     73  64  73 W5        29.66R
SHELDON        CLEAR     75  66  73 W6        29.63R
SIOUX CITY     CLEAR     78  68  71 W5        29.65R
SPENCER        PTCLDY    75  67  76 SW8       29.63R
STORM LAKE     CLEAR     75  66  73 W7        29.66R
$$

ABBREVIATIONS USED IN REMARKS
   TC - TEMPERATURE IN CELSIUS
  WCI - WIND CHILL INDEX
   HX - HEAT INDEX
  VSB - VISIBILITY




USA.gov is the U.S. government's official web portal to all federal, state and local government web resources and services.